Mineral Point, WI

8:41 PM CDT on March 29, 2017 (GMT -0500)
Iowa County

Weather History for KMRJ - October, 2012

Change the Weather History Date:

Wednesday, October 17, 2012

  Actual Average (KLNR) Record (KLNR)
Temperature  
Mean Temperature 57 °F -  
Max Temperature 64 °F 57 °F 77 °F (2016)
Min Temperature 48 °F 36 °F 24 °F (2001)
Degree Days  
Heating Degree Days 8    
Growing Degree Days 7 (Base 50)    
Moisture  
Dew Point 49 °F    
Average Humidity 77    
Maximum Humidity 94    
Minimum Humidity 55    
Precipitation  
Precipitation 0.43 in - - ()
Sea Level Pressure  
Sea Level Pressure 29.39 in    
Wind  
Wind Speed 9 mph (NNE)    
Max Wind Speed 17 mph    
Max Gust Speed 22 mph    
Visibility 9 miles    
Events Rain    
Averages and records for this station are not official NWS values.
T = Trace of Precipitation, MM = Missing Value Source: NWS Daily Summary

Daily Weather History Graph

Daily Weather History Graph

Search for Another Location

Airport or City:

Trip Planner

Search our weather history database for the weather conditions in past years. The results will help you decide how hot, cold, wet, or windy it might be!

Date:

Astronomy

Oct. 17, 2012 Rise Set
Actual Time 7:17 AM CDT 6:14 PM CDT
Civil Twilight 6:48 AM CDT 6:42 PM CDT
Nautical Twilight 6:15 AM CDT 7:15 PM CDT
Astronomical Twilight 5:42 AM CDT 7:48 PM CDT
Moon 9:56 AM CDT (10/17) 7:45 PM CDT (10/17)
Length of Visible Light 11h 54m
Length of Day
10h 57m
Waxing Crescent, 7% of the Moon is Illuminated
Oct 17
Waxing Crescent
Oct 21
First Quarter
Oct 29
Full
Nov 6
Last Quarter
Nov 13
New

Hourly Weather History & Observations

Time (CDT) Temp. Dew Point Humidity Pressure Visibility Wind Dir Wind Speed Gust Speed Precip Events Conditions
12:15 AM 59.0 °F 50.0 °F 72% 29.46 in 10.0 mi North 9.2 mph - N/A   Clear
12:35 AM 59.0 °F 50.0 °F 72% 29.46 in 10.0 mi North 8.1 mph - N/A   Clear
1:15 AM 57.2 °F 50.0 °F 77% 29.46 in 10.0 mi North 8.1 mph - N/A   Clear
1:35 AM 57.2 °F 50.0 °F 77% 29.46 in 10.0 mi North 8.1 mph - N/A   Clear
1:55 AM 57.2 °F 50.0 °F 77% 29.46 in 10.0 mi North 6.9 mph - N/A   Clear
2:15 AM 55.4 °F 50.0 °F 82% 29.45 in 10.0 mi North 6.9 mph - N/A   Clear
2:35 AM 57.2 °F 50.0 °F 77% 29.45 in 10.0 mi North 6.9 mph - N/A   Clear
2:55 AM 55.4 °F 50.0 °F 82% 29.45 in 10.0 mi North 6.9 mph - N/A   Clear
3:15 AM 53.6 °F 48.2 °F 82% 29.45 in 10.0 mi North 5.8 mph - N/A   Clear
3:35 AM 55.4 °F 48.2 °F 77% 29.45 in 10.0 mi North 6.9 mph - N/A   Clear
3:55 AM 55.4 °F 48.2 °F 77% 29.45 in 10.0 mi NNE 9.2 mph - N/A   Clear
4:15 AM 55.4 °F 48.2 °F 77% 29.45 in 10.0 mi North 6.9 mph - N/A   Clear
4:35 AM 55.4 °F 46.4 °F 72% 29.45 in 10.0 mi North 6.9 mph - N/A   Clear
4:55 AM 55.4 °F 46.4 °F 72% 29.44 in 10.0 mi North 6.9 mph - N/A   Clear
5:15 AM 53.6 °F 46.4 °F 77% 29.44 in 10.0 mi North 6.9 mph - N/A   Clear
5:35 AM 53.6 °F 46.4 °F 77% 29.43 in 10.0 mi NNE 6.9 mph - N/A   Clear
6:15 AM 53.6 °F 44.6 °F 72% 29.42 in 10.0 mi North 9.2 mph - N/A   Clear
6:55 AM 53.6 °F 44.6 °F 72% 29.42 in 10.0 mi NNE 9.2 mph - N/A   Clear
7:15 AM 53.6 °F 44.6 °F 72% 29.42 in 10.0 mi NNE 8.1 mph - N/A   Clear
7:35 AM 53.6 °F 44.6 °F 72% 29.42 in 10.0 mi North 6.9 mph - N/A   Clear
7:55 AM 53.6 °F 44.6 °F 72% 29.42 in 10.0 mi North 6.9 mph - N/A   Clear
8:15 AM 53.6 °F 44.6 °F 72% 29.42 in 10.0 mi North 9.2 mph - N/A   Clear
8:35 AM 55.4 °F 44.6 °F 67% 29.41 in 10.0 mi North 10.4 mph - N/A   Clear
8:55 AM 57.2 °F 46.4 °F 67% 29.42 in 10.0 mi North 10.4 mph - N/A   Clear
9:15 AM 59.0 °F 46.4 °F 63% 29.41 in 10.0 mi NNE 10.4 mph - N/A   Clear
9:35 AM 59.0 °F 46.4 °F 63% 29.40 in 10.0 mi North 11.5 mph - N/A   Clear
9:55 AM 60.8 °F 46.4 °F 59% 29.39 in 10.0 mi North 11.5 mph - N/A   Clear
10:35 AM 62.6 °F 46.4 °F 55% 29.39 in 10.0 mi NNE 13.8 mph 18.4 mph N/A   Clear
10:55 AM 62.6 °F 46.4 °F 55% 29.39 in 10.0 mi NNE 13.8 mph 19.6 mph N/A   Mostly Cloudy
11:15 AM 62.6 °F 46.4 °F 55% 29.38 in 10.0 mi North 9.2 mph 18.4 mph N/A   Overcast
11:35 AM 62.6 °F 48.2 °F 59% 29.38 in 10.0 mi North 12.7 mph - N/A   Scattered Clouds
11:55 AM 64.4 °F 48.2 °F 56% 29.39 in 10.0 mi NNE 15.0 mph 21.9 mph N/A   Mostly Cloudy
12:15 PM 64.4 °F 50.0 °F 59% 29.38 in 10.0 mi North 11.5 mph 20.7 mph N/A   Mostly Cloudy
12:35 PM 62.6 °F 48.2 °F 59% 29.40 in 10.0 mi North 17.3 mph 21.9 mph N/A   Overcast
1:15 PM 59.0 °F 53.6 °F 82% 29.38 in 10.0 mi North 11.5 mph - 0.01 in Rain Light Rain
1:35 PM 59.0 °F 53.6 °F 82% 29.38 in 10.0 mi North 11.5 mph - 0.02 in Rain Light Rain
1:55 PM 60.8 °F 55.4 °F 82% 29.38 in 10.0 mi North 13.8 mph 19.6 mph 0.02 in   Overcast
2:15 PM 60.8 °F 55.4 °F 82% 29.36 in 10.0 mi North 12.7 mph - N/A   Mostly Cloudy
2:55 PM 60.8 °F 53.6 °F 77% 29.36 in 10.0 mi North 12.7 mph - N/A   Overcast
3:15 PM 60.8 °F 53.6 °F 77% 29.35 in 10.0 mi North 9.2 mph - 0.01 in Rain Rain
3:35 PM 59.0 °F 55.4 °F 88% 29.34 in 5.0 mi North 6.9 mph - 0.03 in Rain Rain
3:55 PM 59.0 °F 55.4 °F 88% 29.33 in 10.0 mi North 8.1 mph - 0.04 in Rain Light Rain
4:15 PM 59.0 °F 53.6 °F 82% 29.33 in 10.0 mi North 8.1 mph - N/A   Overcast
4:35 PM 59.0 °F 53.6 °F 82% 29.34 in 7.0 mi North 8.1 mph - N/A Rain Light Rain
4:55 PM 57.2 °F 53.6 °F 88% 29.34 in 4.0 mi North 9.2 mph - 0.03 in Rain Rain
5:15 PM 57.2 °F 53.6 °F 88% 29.34 in 3.0 mi North 8.1 mph - 0.04 in Rain Rain
5:35 PM 57.2 °F 53.6 °F 88% 29.33 in 3.0 mi North 6.9 mph - 0.09 in Rain Rain
5:55 PM 57.2 °F 53.6 °F 88% 29.33 in 4.0 mi NNE 9.2 mph - 0.12 in Rain Rain
6:35 PM 53.6 °F 51.8 °F 94% 29.34 in 7.0 mi East 12.7 mph 17.3 mph 0.04 in Rain Rain
6:55 PM 53.6 °F 51.8 °F 94% 29.34 in 10.0 mi East 10.4 mph 17.3 mph 0.08 in Rain Light Rain
7:15 PM 53.6 °F 51.8 °F 94% 29.35 in 7.0 mi East 13.8 mph - 0.02 in Rain Rain
7:35 PM 53.6 °F 51.8 °F 94% 29.34 in 10.0 mi East 12.7 mph - 0.04 in Rain Light Rain
7:55 PM 53.6 °F 51.8 °F 94% 29.36 in 10.0 mi East 9.2 mph 17.3 mph 0.07 in Rain Rain
8:15 PM 53.6 °F 50.0 °F 88% 29.35 in 10.0 mi East 6.9 mph - 0.03 in Rain Rain
8:35 PM 53.6 °F 50.0 °F 88% 29.33 in 10.0 mi ENE 6.9 mph - 0.06 in Rain Rain
8:55 PM 53.6 °F 50.0 °F 88% 29.33 in 10.0 mi East 9.2 mph - 0.07 in Rain Light Rain
9:15 PM 53.6 °F 50.0 °F 88% 29.31 in 10.0 mi East 9.2 mph - N/A   Overcast
9:35 PM 51.8 °F 48.2 °F 88% 29.31 in 10.0 mi East 10.4 mph - N/A   Mostly Cloudy
10:15 PM 51.8 °F 44.6 °F 76% 29.31 in 10.0 mi East 8.1 mph - N/A   Overcast
10:55 PM 50.0 °F 42.8 °F 76% 29.31 in 10.0 mi East 6.9 mph - N/A   Mostly Cloudy
11:15 PM 50.0 °F 42.8 °F 76% 29.32 in 10.0 mi East 5.8 mph - N/A   Overcast
11:35 PM 50.0 °F 42.8 °F 76% 29.31 in 10.0 mi East 9.2 mph - N/A   Overcast
11:55 PM 48.2 °F 42.8 °F 82% 29.30 in 10.0 mi ENE 6.9 mph - N/A   Mostly Cloudy